Location: Observatoire
(46.1952°N, 5.3391°E)
Time: 06:23:20
(UTC+01:00)

A-11 Canister half - Pass Details

Date: 18 February 2026
Orbit: 1524 x 1683 km, 47.3° (Epoch: 13 March)

Event Time Altitude Azimuth Distance (km) Brightness Sun altitude
Rises 00:39:38 0° 290° (WNW) 4,682 11.7 -55.4°
Enters shadow 00:41:16 - 286° (WNW) 4,238 11.4 -55.4°
Reaches altitude 10° 00:43:23 10° 278° (W) 3,707 - -55.5°
Maximum altitude 00:50:18 24° 229° (SW) 2,788 - -55.5°
Drops below altitude 10° 00:57:21 10° 181° (S) 3,767 - -55.5°
Sets 01:01:15 0° 168° (SSE) 4,775 - -55.5°
